This is the latest recevied weather packets stored in our database for station/object WV5G-13. If no packets are shown the sender has not sent any weather packets the latest 10 day(s).
| Time | Temp. | Humidity | Pressure | Rain* | Wind** | Luminosity | Snow |
|---|---|---|---|---|---|---|---|
| 1777741196 | 18.33° C | 37% | 1020.1 hPa | 0 mm | - | 881 W/m² | - |
| 1777740894 | 18.89° C | 35% | 1020.6 hPa | 0 mm | - | 873 W/m² | - |
| 1777740590 | 18.33° C | 36% | 1020.2 hPa | 0 mm | - | 863 W/m² | - |
| 1777740287 | 17.78° C | 40% | 1020.2 hPa | 0 mm | - | 853 W/m² | - |
| 1777739984 | 17.78° C | 41% | 1020.5 hPa | 0 mm | - | 842 W/m² | - |
| 1777739679 | 17.78° C | 39% | 1020.5 hPa | 0 mm | - | 826 W/m² | - |
| 1777739377 | 17.78° C | 40% | 1020.2 hPa | 0 mm | - | 815 W/m² | - |
| 1777739074 | 17.22° C | 41% | 1020.5 hPa | 0 mm | - | 803 W/m² | - |
| 1777738771 | 17.22° C | 43% | 1020.4 hPa | 0 mm | - | 793 W/m² | - |
| 1777738467 | 17.22° C | 42% | 1020.4 hPa | 0 mm | - | 783 W/m² | - |
| 1777738165 | 17.22° C | 43% | 1020.2 hPa | 0 mm | - | 773 W/m² | - |
| 1777737863 | 16.67° C | 45% | 1020.5 hPa | 0 mm | - | 762 W/m² | - |
| 1777737561 | 16.11° C | 45% | 1020.2 hPa | 0 mm | - | 750 W/m² | - |
| 1777737260 | 16.67° C | 45% | 1020.5 hPa | 0 mm | - | 738 W/m² | - |
| 1777736954 | 16.11° C | 45% | 1020.2 hPa | 0 mm | - | 723 W/m² | - |
| 1777736043 | 15.56° C | 48% | 1020.4 hPa | 0 mm | - | 662 W/m² | - |
| 1777735740 | 15.56° C | 50% | 1020.5 hPa | 0 mm | - | 639 W/m² | - |
| 1777735438 | 15° C | 52% | 1020.6 hPa | 0 mm | - | 616 W/m² | - |
| 1777735135 | 15° C | 54% | 1020.6 hPa | 0 mm | - | 594 W/m² | - |
| 1777734831 | 14.44° C | 54% | 1020.7 hPa | 0 mm | - | 575 W/m² | - |
| 1777734530 | 14.44° C | 56% | 1020.5 hPa | 0 mm | - | 560 W/m² | - |
| 1777734225 | 13.89° C | 57% | 1020.4 hPa | 0 mm | - | 546 W/m² | - |
| 1777733922 | 13.33° C | 58% | 1020.2 hPa | 0 mm | - | 533 W/m² | - |
| 1777733619 | 13.33° C | 59% | 1020.6 hPa | 0 mm | - | 518 W/m² | - |
| 1777733315 | 12.78° C | 60% | 1020.2 hPa | 0 mm | - | 499 W/m² | - |
* Rain latest hour (hover to see other rain measurements)
** Current wind speed in m/s (hover to see current wind gust speed)